Darstellungsparameter: Aktuell verwendete Einstellungen:
Skalierung der Graphiken ... ?
xyx+y,   Skalierungsfaktor:      Skalierung: Modus: x, Faktor: 1
Darstellungszeitraum ... ?
Vom - - bis: - -   Zeitraum: 25.06.2014 - 27.06.2014
Min/Max/Avg-Anzeige ... ?
Zeige MMA aktuell
Zeige MMA Monat
Zeige MMA alles
Zeige --A aktuell
Zeige --A Monat
Zeige --A alles
Keine MMA-Anzeige
MMA:
Average (ber die Originaldaten)
MMA-Basis: 25.06.2014 - 27.06.2014
Quicknavigation für Darstellung... ?
Tage:      1T, 2T, 3T, 5T -1T -2T -3T -5T +1T +2T +3T +5T
Wochen: 1W, 2W, 3W -1W -2W -3W +1W +2W +3W
Monate: 1M, 3M, 6M -1M -3M -6M +1M +3M +6M
Jahre:    1J, 3J, 5J, 10J -1J -3J -5J -10J +1J +3J +5J +10J
Nutze für die Darstellung ... ?
Originaldaten oder Mittelwerte auf ...
Stundenbasis Tagesbasis Wochenbasis
Monatsbasis Jahresbasis      Datenbasis: Original-Daten
Darstellen als:
Statistik (Auto) Statistik J:M      Darstellung:
Zur Graphik,    zurück zur Übersicht aller Sensoren.
 
Tabellarische Datenbersicht: ?
 
Sensor: Nr:Datum:Temp:Abs-Feuchte:Windchill:Wind:
Aussen-T/F 1 25-06-2014 08:20:00 14.1 C 12.14 g/m*3 14.1 C 9.7 km/h
2 25-06-2014 08:25:00 14.2 C 12.21 g/m*3 14.2 C 9.7 km/h
3 25-06-2014 08:30:00 14.3 C 12.29 g/m*3 14.3 C 11.3 km/h
4 25-06-2014 08:35:00 14.3 C 12.29 g/m*3 14.3 C 14.5 km/h
5 25-06-2014 08:40:00 14.2 C 9.65 g/m*3 14.2 C 12.9 km/h
6 25-06-2014 08:45:00 14.2 C 9.52 g/m*3 14.2 C 17.7 km/h
7 25-06-2014 08:50:00 14.2 C 9.52 g/m*3 14.2 C 11.3 km/h
8 25-06-2014 08:55:00 14.1 C 9.59 g/m*3 14.1 C 8.1 km/h
9 25-06-2014 09:00:00 13.9 C 9.35 g/m*3 13.9 C 12.9 km/h
10 25-06-2014 09:05:00 13.8 C 9.65 g/m*3 13.8 C 4.8 km/h
11 25-06-2014 09:10:00 14.1 C 9.71 g/m*3 14.1 C 6.4 km/h
12 25-06-2014 09:15:00 14.5 C 9.58 g/m*3 14.5 C 16.1 km/h
13 25-06-2014 09:20:00 14.7 C 9.32 g/m*3 14.7 C 17.7 km/h
14 25-06-2014 09:25:00 14.8 C 9.37 g/m*3 14.8 C 14.5 km/h
15 25-06-2014 09:30:00 14.9 C 9.3 g/m*3 14.9 C 17.7 km/h
16 25-06-2014 09:35:00 15 C 9.1 g/m*3 15 C 12.9 km/h
17 25-06-2014 09:40:00 15.1 C 9.16 g/m*3 15.1 C 9.7 km/h
18 25-06-2014 09:45:00 15.2 C 9.35 g/m*3 15.2 C 9.7 km/h
19 25-06-2014 09:50:00 15.4 C 9.07 g/m*3 15.4 C 16.1 km/h
20 25-06-2014 09:55:00 15.6 C 8.91 g/m*3 15.6 C 11.3 km/h
21 25-06-2014 10:00:00 15.6 C 8.91 g/m*3 15.6 C 14.5 km/h
22 25-06-2014 10:05:00 15.3 C 8.75 g/m*3 15.3 C 14.5 km/h
23 25-06-2014 10:10:00 15.2 C 8.7 g/m*3 15.2 C 12.9 km/h
24 25-06-2014 10:15:00 15.2 C 8.7 g/m*3 15.2 C 19.3 km/h
25 25-06-2014 10:20:00 15.2 C 8.44 g/m*3 15.2 C 17.7 km/h
Sensor: Nr:Datum:Temp:Abs-Feuchte:Windchill:Wind:
Aussen-T/F 26 25-06-2014 10:25:00 15.3 C 8.62 g/m*3 15.3 C 9.7 km/h
27 25-06-2014 10:30:00 15.7 C 8.7 g/m*3 15.7 C 14.5 km/h
28 25-06-2014 10:35:00 15.8 C 8.48 g/m*3 15.8 C 16.1 km/h
29 25-06-2014 10:40:00 15.7 C 8.56 g/m*3 15.7 C 9.7 km/h
30 25-06-2014 10:45:00 16 C 8.45 g/m*3 16 C 16.1 km/h
31 25-06-2014 10:50:00 16.1 C 8.09 g/m*3 16.1 C 19.3 km/h
32 25-06-2014 10:55:00 16.3 C 7.63 g/m*3 16.3 C 11.3 km/h
33 25-06-2014 11:00:00 16.8 C 8.01 g/m*3 16.8 C 12.9 km/h
34 25-06-2014 11:05:00 17.3 C 8.84 g/m*3 17.3 C 16.1 km/h
35 25-06-2014 11:10:00 17.3 C 8.1 g/m*3 17.3 C 14.5 km/h
36 25-06-2014 11:15:00 16.8 C 8.01 g/m*3 16.8 C 12.9 km/h
37 25-06-2014 11:20:00 16.4 C 7.82 g/m*3 16.4 C 20.9 km/h
38 25-06-2014 11:25:00 16.1 C 8.22 g/m*3 16.1 C 12.9 km/h
39 25-06-2014 11:30:00 16.3 C 7.91 g/m*3 16.3 C 12.9 km/h
40 25-06-2014 11:35:00 16.9 C 8.49 g/m*3 16.9 C 11.3 km/h
41 25-06-2014 11:40:00 17.4 C 8.45 g/m*3 17.4 C 16.1 km/h
42 25-06-2014 11:45:00 17.7 C 8.15 g/m*3 17.7 C 11.3 km/h
43 25-06-2014 11:50:00 17.7 C 8.15 g/m*3 17.7 C 12.9 km/h
44 25-06-2014 11:55:00 17.9 C 8.24 g/m*3 17.9 C 12.9 km/h
45 25-06-2014 12:00:00 18.1 C 8.19 g/m*3 18.1 C 11.3 km/h
46 25-06-2014 12:05:00 17.9 C 7.63 g/m*3 17.9 C 17.7 km/h
47 25-06-2014 12:10:00 17.6 C 7.65 g/m*3 17.6 C 16.1 km/h
48 25-06-2014 12:15:00 17.8 C 7.59 g/m*3 17.8 C 12.9 km/h
49 25-06-2014 12:20:00 18.2 C 7.77 g/m*3 18.2 C 16.1 km/h
50 25-06-2014 12:25:00 18.4 C 7.71 g/m*3 18.4 C 16.1 km/h
Sensor: Nr:Datum:Temp:Abs-Feuchte:Windchill:Wind:
Aussen-T/F 51 25-06-2014 12:30:00 18.3 C 7.97 g/m*3 18.3 C 17.7 km/h
52 25-06-2014 12:35:00 17.7 C 7.69 g/m*3 17.7 C 16.1 km/h
53 25-06-2014 12:40:00 17.4 C 7.71 g/m*3 17.4 C 14.5 km/h
54 25-06-2014 12:45:00 17.3 C 7.81 g/m*3 17.3 C 14.5 km/h
55 25-06-2014 12:50:00 17.3 C 7.96 g/m*3 17.3 C 12.9 km/h
56 25-06-2014 12:55:00 17.4 C 7.56 g/m*3 17.4 C 12.9 km/h
57 25-06-2014 13:00:00 17.4 C 7.85 g/m*3 17.4 C 9.7 km/h
58 25-06-2014 13:05:00 17.7 C 8 g/m*3 17.7 C 8.1 km/h
59 25-06-2014 13:10:00 18.1 C 8.03 g/m*3 18.1 C 14.5 km/h
60 25-06-2014 13:15:00 18.1 C 7.88 g/m*3 18.1 C 11.3 km/h
61 25-06-2014 13:20:00 18 C 7.83 g/m*3 18 C 12.9 km/h
62 25-06-2014 13:25:00 17.9 C 7.79 g/m*3 17.9 C 11.3 km/h
63 25-06-2014 13:30:00 17.8 C 7.89 g/m*3 17.8 C 9.7 km/h
64 25-06-2014 13:35:00 17.9 C 7.63 g/m*3 17.9 C 12.9 km/h
65 25-06-2014 13:40:00 17.8 C 7.74 g/m*3 17.8 C 11.3 km/h
66 25-06-2014 13:45:00 17.6 C 7.5 g/m*3 17.6 C 6.4 km/h
67 25-06-2014 13:50:00 17.9 C 8.24 g/m*3 17.9 C 11.3 km/h
68 25-06-2014 13:55:00 18.2 C 7.93 g/m*3 18.2 C 6.4 km/h
69 25-06-2014 14:00:00 18.3 C 7.51 g/m*3 18.3 C 12.9 km/h
70 25-06-2014 14:05:00 18.3 C 7.82 g/m*3 18.3 C 9.7 km/h
71 25-06-2014 14:10:00 18.2 C 7.77 g/m*3 18.2 C 17.7 km/h
72 25-06-2014 14:15:00 17.8 C 7.89 g/m*3 17.8 C 11.3 km/h
73 25-06-2014 14:20:00 17.9 C 8.24 g/m*3 17.9 C 12.9 km/h
74 25-06-2014 14:25:00 18.7 C 7.68 g/m*3 18.7 C 16.1 km/h
75 25-06-2014 14:30:00 18.8 C 7.89 g/m*3 18.8 C 17.7 km/h
Sensor: Nr:Datum:Temp:Abs-Feuchte:Windchill:Wind:
Aussen-T/F 76 25-06-2014 14:35:00 18.9 C 8.1 g/m*3 18.9 C 14.5 km/h
77 25-06-2014 14:40:00 18.9 C 7.78 g/m*3 18.9 C 12.9 km/h
78 25-06-2014 14:45:00 18.9 C 7.78 g/m*3 18.9 C 9.7 km/h
79 25-06-2014 14:50:00 18.7 C 7.68 g/m*3 18.7 C 9.7 km/h
80 25-06-2014 14:55:00 18.4 C 7.86 g/m*3 18.4 C 11.3 km/h
81 25-06-2014 15:00:00 18.2 C 7.62 g/m*3 18.2 C 9.7 km/h
82 25-06-2014 15:05:00 17.9 C 7.63 g/m*3 17.9 C 9.7 km/h
83 25-06-2014 15:10:00 17.8 C 7.74 g/m*3 17.8 C 9.7 km/h
84 25-06-2014 15:15:00 17.8 C 7.74 g/m*3 17.8 C 9.7 km/h
85 25-06-2014 15:20:00 17.9 C 7.94 g/m*3 17.9 C 9.7 km/h
86 25-06-2014 15:25:00 18.2 C 7.93 g/m*3 18.2 C 11.3 km/h
87 25-06-2014 15:30:00 18.6 C 7.96 g/m*3 18.6 C 8.1 km/h
88 25-06-2014 15:35:00 18.8 C 8.05 g/m*3 18.8 C 14.5 km/h
89 25-06-2014 15:40:00 19.3 C 7.96 g/m*3 19.3 C 19.3 km/h
90 25-06-2014 15:45:00 19.1 C 7.7 g/m*3 19.1 C 16.1 km/h
91 25-06-2014 15:50:00 18.8 C 7.57 g/m*3 18.8 C 9.7 km/h
92 25-06-2014 15:55:00 18.6 C 7.48 g/m*3 18.6 C 9.7 km/h
93 25-06-2014 16:00:00 18.7 C 7.84 g/m*3 18.7 C 11.3 km/h
94 25-06-2014 16:05:00 19.3 C 7.46 g/m*3 19.3 C 8.1 km/h
95 25-06-2014 16:10:00 20.1 C 7.82 g/m*3 20.1 C 12.9 km/h
96 25-06-2014 16:15:00 20.5 C 7.47 g/m*3 20.5 C 6.4 km/h
97 25-06-2014 16:20:00 20.1 C 7.13 g/m*3 20.1 C 11.3 km/h
98 25-06-2014 16:25:00 19.8 C 7.34 g/m*3 19.8 C 6.4 km/h
99 25-06-2014 16:30:00 19.5 C 7.38 g/m*3 19.5 C 9.7 km/h
100 25-06-2014 16:35:00 19.3 C 7.46 g/m*3 19.3 C 11.3 km/h
Sensor: Nr:Datum:Temp:Abs-Feuchte:Windchill:Wind:
Aussen-T/F 101 25-06-2014 16:40:00 19.8 C 7.52 g/m*3 19.8 C 8.1 km/h
102 25-06-2014 16:45:00 20.2 C 7.34 g/m*3 20.2 C 11.3 km/h
103 25-06-2014 16:50:00 20 C 7.09 g/m*3 20 C 8.1 km/h
104 25-06-2014 16:55:00 19.6 C 7.26 g/m*3 19.6 C 9.7 km/h
105 25-06-2014 17:00:00 19.2 C 7.42 g/m*3 19.2 C 11.3 km/h
106 25-06-2014 17:05:00 18.9 C 7.13 g/m*3 18.9 C 12.9 km/h
107 25-06-2014 17:10:00 19.1 C 7.54 g/m*3 19.1 C 9.7 km/h
108 25-06-2014 17:15:00 19.7 C 7.3 g/m*3 19.7 C 11.3 km/h
109 25-06-2014 17:20:00 20.1 C 7.3 g/m*3 20.1 C 12.9 km/h
110 25-06-2014 17:25:00 19.8 C 7.34 g/m*3 19.8 C 11.3 km/h
111 25-06-2014 17:30:00 19.7 C 7.81 g/m*3 19.7 C 9.7 km/h
112 25-06-2014 17:35:00 20.3 C 7.56 g/m*3 20.3 C 14.5 km/h
113 25-06-2014 17:40:00 20.2 C 7.34 g/m*3 20.2 C 8.1 km/h
114 25-06-2014 17:45:00 19.7 C 7.47 g/m*3 19.7 C 11.3 km/h
115 25-06-2014 17:50:00 19.5 C 7.89 g/m*3 19.5 C 6.4 km/h
116 25-06-2014 17:55:00 19.8 C 7.34 g/m*3 19.8 C 4.8 km/h
117 25-06-2014 18:00:00 20.1 C 7.3 g/m*3 20.1 C 4.8 km/h
118 25-06-2014 18:05:00 20.2 C 7.69 g/m*3 20.2 C 6.4 km/h
119 25-06-2014 18:10:00 20.6 C 7.52 g/m*3 20.6 C 9.7 km/h
120 25-06-2014 18:15:00 20.7 C 7.92 g/m*3 20.7 C 12.9 km/h
121 25-06-2014 18:20:00 20.9 C 7.65 g/m*3 20.9 C 8.1 km/h
122 25-06-2014 18:25:00 20.8 C 7.79 g/m*3 20.8 C 8.1 km/h
123 25-06-2014 18:30:00 21.1 C 7.19 g/m*3 21.1 C 11.3 km/h
124 25-06-2014 18:35:00 20.9 C 7.47 g/m*3 20.9 C 9.7 km/h
125 25-06-2014 18:40:00 20.7 C 7.56 g/m*3 20.7 C 11.3 km/h
Sensor: Nr:Datum:Temp:Abs-Feuchte:Windchill:Wind:
Aussen-T/F 126 25-06-2014 18:45:00 20.8 C 7.6 g/m*3 20.8 C 9.7 km/h
127 25-06-2014 18:50:00 21.1 C 7.37 g/m*3 21.1 C 11.3 km/h
128 25-06-2014 18:55:00 21.1 C 7.92 g/m*3 21.1 C 12.9 km/h
129 25-06-2014 19:00:00 21 C 7.69 g/m*3 21 C 11.3 km/h
130 25-06-2014 19:05:00 20.8 C 7.42 g/m*3 20.8 C 9.7 km/h
131 25-06-2014 19:10:00 20.4 C 7.43 g/m*3 20.4 C 11.3 km/h
132 25-06-2014 19:15:00 20.1 C 7.65 g/m*3 20.1 C 9.7 km/h
133 25-06-2014 19:20:00 20 C 7.6 g/m*3 20 C 9.7 km/h
134 25-06-2014 19:25:00 19.7 C 7.64 g/m*3 19.7 C 9.7 km/h
135 25-06-2014 19:30:00 19.4 C 7.51 g/m*3 19.4 C 11.3 km/h
136 25-06-2014 19:35:00 19.1 C 7.54 g/m*3 19.1 C 9.7 km/h
137 25-06-2014 19:40:00 19.1 C 7.54 g/m*3 19.1 C 9.7 km/h
138 25-06-2014 19:45:00 19.2 C 7.59 g/m*3 19.2 C 9.7 km/h
139 25-06-2014 19:50:00 19.3 C 7.63 g/m*3 19.3 C 8.1 km/h
140 25-06-2014 19:55:00 19.3 C 7.63 g/m*3 19.3 C 9.7 km/h
141 25-06-2014 20:00:00 19.3 C 7.8 g/m*3 19.3 C 11.3 km/h
142 25-06-2014 20:05:00 19.2 C 7.91 g/m*3 19.2 C 9.7 km/h
143 25-06-2014 20:10:00 19 C 7.66 g/m*3 19 C 11.3 km/h
144 25-06-2014 20:15:00 18.8 C 7.89 g/m*3 18.8 C 9.7 km/h
145 25-06-2014 20:20:00 18.8 C 7.73 g/m*3 18.8 C 6.4 km/h
146 25-06-2014 20:25:00 18.9 C 7.94 g/m*3 18.9 C 9.7 km/h
147 25-06-2014 20:30:00 18.8 C 7.89 g/m*3 18.8 C 8.1 km/h
148 25-06-2014 20:35:00 18.7 C 8.01 g/m*3 18.7 C 8.1 km/h
149 25-06-2014 20:40:00 18.6 C 7.96 g/m*3 18.6 C 11.3 km/h
150 25-06-2014 20:45:00 18.4 C 7.86 g/m*3 18.4 C 8.1 km/h
Sensor: Nr:Datum:Temp:Abs-Feuchte:Windchill:Wind:
Aussen-T/F 151 25-06-2014 20:50:00 18.3 C 7.97 g/m*3 18.3 C 14.5 km/h
152 25-06-2014 20:55:00 18.1 C 7.88 g/m*3 18.1 C 8.1 km/h
153 25-06-2014 21:00:00 17.8 C 7.89 g/m*3 17.8 C 8.1 km/h
154 25-06-2014 21:05:00 17.7 C 8 g/m*3 17.7 C 8.1 km/h
155 25-06-2014 21:10:00 17.6 C 8.1 g/m*3 17.6 C 3.2 km/h
156 25-06-2014 21:15:00 17.5 C 8.05 g/m*3 17.5 C 3.2 km/h
157 25-06-2014 21:20:00 17.3 C 8.1 g/m*3 17.3 C 4.8 km/h
158 25-06-2014 21:25:00 17 C 8.39 g/m*3 17 C 0 km/h
159 25-06-2014 21:30:00 16.5 C 8.43 g/m*3 16.5 C 0 km/h
160 25-06-2014 21:35:00 15.9 C 8.26 g/m*3 15.9 C 0 km/h
161 25-06-2014 21:40:00 15.5 C 8.33 g/m*3 15.5 C 0 km/h
162 25-06-2014 21:45:00 15.2 C 8.31 g/m*3 15.2 C 0 km/h
163 25-06-2014 21:50:00 14.9 C 8.41 g/m*3 14.9 C 0 km/h
164 25-06-2014 21:55:00 14.7 C 8.44 g/m*3 14.7 C 0 km/h
165 25-06-2014 22:00:00 14.5 C 8.46 g/m*3 14.5 C 0 km/h
166 25-06-2014 22:05:00 14.3 C 8.48 g/m*3 14.3 C 0 km/h
167 25-06-2014 22:10:00 14.2 C 8.67 g/m*3 14.2 C 0 km/h
168 25-06-2014 22:15:00 14 C 8.56 g/m*3 14 C 0 km/h
169 25-06-2014 22:20:00 13.8 C 8.58 g/m*3 13.8 C 0 km/h
170 25-06-2014 22:25:00 13.7 C 8.53 g/m*3 13.7 C 0 km/h
171 25-06-2014 22:30:00 13.6 C 8.47 g/m*3 13.6 C 0 km/h
172 25-06-2014 22:35:00 13.5 C 8.54 g/m*3 13.5 C 0 km/h
173 25-06-2014 22:40:00 13.4 C 8.49 g/m*3 13.4 C 0 km/h
174 25-06-2014 22:45:00 13.3 C 8.43 g/m*3 13.3 C 0 km/h
175 25-06-2014 22:50:00 13.2 C 8.5 g/m*3 13.2 C 0 km/h
Sensor: Nr:Datum:Temp:Abs-Feuchte:Windchill:Wind:
Aussen-T/F 176 25-06-2014 22:55:00 13.2 C 8.5 g/m*3 13.2 C 0 km/h
177 25-06-2014 23:00:00 13.1 C 8.44 g/m*3 13.1 C 0 km/h
178 25-06-2014 23:05:00 13.1 C 8.44 g/m*3 13.1 C 0 km/h
179 25-06-2014 23:10:00 13 C 8.39 g/m*3 13 C 0 km/h
180 25-06-2014 23:15:00 12.9 C 8.45 g/m*3 12.9 C 0 km/h
181 25-06-2014 23:20:00 12.9 C 8.45 g/m*3 12.9 C 0 km/h
182 25-06-2014 23:25:00 12.7 C 8.35 g/m*3 12.7 C 0 km/h
183 25-06-2014 23:30:00 12.7 C 8.46 g/m*3 12.7 C 0 km/h
184 25-06-2014 23:35:00 12.5 C 8.47 g/m*3 12.5 C 0 km/h
185 25-06-2014 23:40:00 12.3 C 8.47 g/m*3 12.3 C 0 km/h
186 25-06-2014 23:45:00 12.1 C 8.47 g/m*3 12.1 C 0 km/h
187 25-06-2014 23:50:00 11.9 C 8.37 g/m*3 11.9 C 0 km/h
188 25-06-2014 23:55:00 11.8 C 8.31 g/m*3 11.8 C 0 km/h
189 26-06-2014 00:00:00 11.7 C 8.26 g/m*3 11.7 C 0 km/h
190 26-06-2014 00:05:00 11.6 C 8.32 g/m*3 11.6 C 0 km/h
191 26-06-2014 00:10:00 11.5 C 8.26 g/m*3 11.5 C 0 km/h
192 26-06-2014 00:15:00 11.4 C 8.21 g/m*3 11.4 C 0 km/h
193 26-06-2014 00:20:00 11.2 C 8.21 g/m*3 11.2 C 0 km/h
194 26-06-2014 00:25:00 11.2 C 8.21 g/m*3 11.2 C 0 km/h
195 26-06-2014 00:30:00 11.1 C 8.26 g/m*3 11.1 C 0 km/h
196 26-06-2014 00:35:00 11 C 8.21 g/m*3 11 C 0 km/h
197 26-06-2014 00:40:00 10.9 C 8.16 g/m*3 10.9 C 0 km/h
198 26-06-2014 00:45:00 10.9 C 8.16 g/m*3 10.9 C 0 km/h
199 26-06-2014 00:50:00 10.8 C 8.2 g/m*3 10.8 C 0 km/h
200 26-06-2014 00:55:00 10.7 C 8.15 g/m*3 10.7 C 0 km/h
Sensor: Nr:Datum:Temp:Abs-Feuchte:Windchill:Wind:
Aussen-T/F 201 26-06-2014 01:00:00 10.6 C 8.2 g/m*3 10.6 C 0 km/h
202 26-06-2014 01:05:00 10.5 C 8.15 g/m*3 10.5 C 0 km/h
203 26-06-2014 01:10:00 10.5 C 8.15 g/m*3 10.5 C 0 km/h
204 26-06-2014 01:15:00 10.4 C 8.1 g/m*3 10.4 C 0 km/h
205 26-06-2014 01:20:00 10.4 C 8.1 g/m*3 10.4 C 0 km/h
206 26-06-2014 01:25:00 10.3 C 8.14 g/m*3 10.3 C 0 km/h
207 26-06-2014 01:30:00 10.3 C 8.14 g/m*3 10.3 C 0 km/h
208 26-06-2014 01:35:00 10.2 C 8.09 g/m*3 10.2 C 0 km/h
209 26-06-2014 01:40:00 10.2 C 8.18 g/m*3 10.2 C 0 km/h
210 26-06-2014 01:45:00 10.1 C 8.13 g/m*3 10.1 C 0 km/h
211 26-06-2014 01:50:00 9.9 C 8.03 g/m*3 9.9 C 0 km/h
212 26-06-2014 01:55:00 9.9 C 8.03 g/m*3 9.9 C 0 km/h
213 26-06-2014 02:00:00 9.8 C 8.07 g/m*3 9.8 C 0 km/h
214 26-06-2014 02:05:00 9.7 C 8.02 g/m*3 9.7 C 0 km/h
215 26-06-2014 02:10:00 9.7 C 8.02 g/m*3 9.7 C 0 km/h
216 26-06-2014 02:15:00 9.6 C 8.06 g/m*3 9.6 C 0 km/h
217 26-06-2014 02:20:00 9.5 C 7.92 g/m*3 9.5 C 0 km/h
218 26-06-2014 02:25:00 9.4 C 7.96 g/m*3 9.4 C 0 km/h
219 26-06-2014 02:30:00 9.4 C 7.96 g/m*3 9.4 C 0 km/h
220 26-06-2014 02:35:00 9.3 C 7.91 g/m*3 9.3 C 0 km/h
221 26-06-2014 02:40:00 9.3 C 7.91 g/m*3 9.3 C 0 km/h
222 26-06-2014 02:45:00 9.3 C 7.91 g/m*3 9.3 C 0 km/h
223 26-06-2014 02:50:00 9.2 C 7.86 g/m*3 9.2 C 0 km/h
224 26-06-2014 02:55:00 9.2 C 7.95 g/m*3 9.2 C 0 km/h
225 26-06-2014 03:00:00 9.2 C 7.95 g/m*3 9.2 C 0 km/h
Sensor: Nr:Datum:Temp:Abs-Feuchte:Windchill:Wind:
Aussen-T/F 226 26-06-2014 03:05:00 9.2 C 7.95 g/m*3 9.2 C 0 km/h
227 26-06-2014 03:10:00 9.1 C 7.81 g/m*3 9.1 C 0 km/h
228 26-06-2014 03:15:00 9 C 7.85 g/m*3 9 C 0 km/h
229 26-06-2014 03:20:00 8.9 C 7.8 g/m*3 8.9 C 0 km/h
230 26-06-2014 03:25:00 8.9 C 7.8 g/m*3 8.9 C 0 km/h
231 26-06-2014 03:30:00 8.8 C 7.75 g/m*3 8.8 C 0 km/h
232 26-06-2014 03:35:00 8.8 C 7.75 g/m*3 8.8 C 0 km/h
233 26-06-2014 03:40:00 8.8 C 7.83 g/m*3 8.8 C 0 km/h
234 26-06-2014 03:45:00 8.7 C 7.78 g/m*3 8.7 C 0 km/h
235 26-06-2014 03:50:00 8.7 C 7.78 g/m*3 8.7 C 0 km/h
236 26-06-2014 03:55:00 8.7 C 7.78 g/m*3 8.7 C 0 km/h
237 26-06-2014 04:00:00 8.7 C 7.78 g/m*3 8.7 C 0 km/h
238 26-06-2014 04:05:00 8.6 C 7.73 g/m*3 8.6 C 0 km/h
239 26-06-2014 04:10:00 8.6 C 7.73 g/m*3 8.6 C 0 km/h
240 26-06-2014 04:15:00 8.6 C 7.82 g/m*3 8.6 C 0 km/h
241 26-06-2014 04:20:00 8.5 C 7.77 g/m*3 8.5 C 0 km/h
242 26-06-2014 04:25:00 8.5 C 7.77 g/m*3 8.5 C 0 km/h
243 26-06-2014 04:30:00 8.6 C 7.82 g/m*3 8.6 C 0 km/h
244 26-06-2014 04:35:00 8.6 C 7.82 g/m*3 8.6 C 0 km/h
245 26-06-2014 04:40:00 8.6 C 7.82 g/m*3 8.6 C 0 km/h
246 26-06-2014 04:45:00 8.6 C 7.82 g/m*3 8.6 C 0 km/h
247 26-06-2014 04:50:00 8.6 C 7.82 g/m*3 8.6 C 0 km/h
248 26-06-2014 04:55:00 8.5 C 7.77 g/m*3 8.5 C 0 km/h
249 26-06-2014 05:00:00 8.5 C 7.77 g/m*3 8.5 C 0 km/h
250 26-06-2014 05:05:00 8.4 C 7.72 g/m*3 8.4 C 0 km/h
Sensor: Nr:Datum:Temp:Abs-Feuchte:Windchill:Wind:
Aussen-T/F 251 26-06-2014 05:10:00 8.5 C 7.85 g/m*3 8.5 C 0 km/h
252 26-06-2014 05:15:00 8.5 C 7.85 g/m*3 8.5 C 0 km/h
253 26-06-2014 05:20:00 8.5 C 7.85 g/m*3 8.5 C 0 km/h
254 26-06-2014 05:25:00 8.5 C 7.85 g/m*3 8.5 C 0 km/h
255 26-06-2014 05:30:00 8.5 C 7.85 g/m*3 8.5 C 3.2 km/h
256 26-06-2014 05:35:00 8.6 C 7.91 g/m*3 8.6 C 0 km/h
257 26-06-2014 05:40:00 8.6 C 7.91 g/m*3 8.6 C 3.2 km/h
258 26-06-2014 05:45:00 8.6 C 7.82 g/m*3 8.6 C 0 km/h
259 26-06-2014 05:50:00 8.6 C 7.91 g/m*3 8.6 C 0 km/h
260 26-06-2014 05:55:00 8.6 C 7.91 g/m*3 8.6 C 1.6 km/h
261 26-06-2014 06:00:00 8.6 C 7.91 g/m*3 8.6 C 0 km/h
262 26-06-2014 06:05:00 8.6 C 7.82 g/m*3 8.6 C 0 km/h
263 26-06-2014 06:10:00 8.6 C 7.82 g/m*3 8.6 C 0 km/h
264 26-06-2014 06:15:00 8.6 C 7.91 g/m*3 8.6 C 0 km/h
265 26-06-2014 06:20:00 8.6 C 7.82 g/m*3 8.6 C 0 km/h
266 26-06-2014 06:25:00 8.6 C 7.91 g/m*3 8.6 C 0 km/h
267 26-06-2014 06:30:00 8.6 C 7.91 g/m*3 8.6 C 0 km/h
268 26-06-2014 06:35:00 8.5 C 7.85 g/m*3 8.5 C 0 km/h
269 26-06-2014 06:40:00 8.4 C 7.8 g/m*3 8.4 C 0 km/h
270 26-06-2014 06:45:00 8.4 C 7.8 g/m*3 8.4 C 0 km/h
271 26-06-2014 06:50:00 8.4 C 7.8 g/m*3 8.4 C 0 km/h
272 26-06-2014 06:55:00 8.4 C 7.8 g/m*3 8.4 C 0 km/h
273 26-06-2014 07:00:00 8.5 C 7.85 g/m*3 8.5 C 0 km/h
274 26-06-2014 07:05:00 8.6 C 7.99 g/m*3 8.6 C 0 km/h
275 26-06-2014 07:10:00 8.6 C 7.91 g/m*3 8.6 C 0 km/h
Sensor: Nr:Datum:Temp:Abs-Feuchte:Windchill:Wind:
Aussen-T/F 276 26-06-2014 07:15:00 8.7 C 7.96 g/m*3 8.7 C 0 km/h
277 26-06-2014 07:20:00 8.9 C 8.06 g/m*3 8.9 C 3.2 km/h
278 26-06-2014 07:25:00 9.2 C 8.13 g/m*3 9.2 C 3.2 km/h
279 26-06-2014 07:30:00 9.4 C 8.14 g/m*3 9.4 C 1.6 km/h
280 26-06-2014 07:35:00 9.6 C 8.24 g/m*3 9.6 C 0 km/h
281 26-06-2014 07:40:00 9.8 C 8.26 g/m*3 9.8 C 0 km/h
282 26-06-2014 07:45:00 10.1 C 8.32 g/m*3 10.1 C 1.6 km/h
283 26-06-2014 07:50:00 10.2 C 8.28 g/m*3 10.2 C 1.6 km/h
284 26-06-2014 07:55:00 10.3 C 8.33 g/m*3 10.3 C 0 km/h
285 26-06-2014 08:00:00 10.5 C 8.44 g/m*3 10.5 C 1.6 km/h
286 26-06-2014 08:05:00 10.7 C 8.45 g/m*3 10.7 C 1.6 km/h
287 26-06-2014 08:10:00 10.8 C 8.4 g/m*3 10.8 C 3.2 km/h
288 26-06-2014 08:15:00 10.9 C 8.45 g/m*3 10.9 C 0 km/h
289 26-06-2014 08:20:00 11.1 C 8.56 g/m*3 11.1 C 0 km/h
290 26-06-2014 08:25:00 11.2 C 8.51 g/m*3 11.2 C 1.6 km/h
291 26-06-2014 08:30:00 11.3 C 8.57 g/m*3 11.3 C 1.6 km/h
292 26-06-2014 08:35:00 11.4 C 8.72 g/m*3 11.4 C 0 km/h
293 26-06-2014 08:40:00 11.6 C 8.63 g/m*3 11.6 C 0 km/h
294 26-06-2014 08:45:00 11.7 C 8.58 g/m*3 11.7 C 1.6 km/h
295 26-06-2014 08:50:00 11.9 C 8.68 g/m*3 11.9 C 0 km/h
296 26-06-2014 08:55:00 12.3 C 8.8 g/m*3 12.3 C 1.6 km/h
297 26-06-2014 09:00:00 12.6 C 8.85 g/m*3 12.6 C 3.2 km/h
298 26-06-2014 09:05:00 12.8 C 8.85 g/m*3 12.8 C 1.6 km/h
299 26-06-2014 09:10:00 13 C 8.96 g/m*3 13 C 1.6 km/h
300 26-06-2014 09:15:00 13.3 C 9.24 g/m*3 13.3 C 3.2 km/h
Sensor: Nr:Datum:Temp:Abs-Feuchte:Windchill:Wind:
Aussen-T/F 301 26-06-2014 09:20:00 13.6 C 9.18 g/m*3 13.6 C 0 km/h
302 26-06-2014 09:25:00 13.8 C 9.17 g/m*3 13.8 C 0 km/h
303 26-06-2014 09:30:00 13.8 C 9.17 g/m*3 13.8 C 0 km/h
304 26-06-2014 09:35:00 13.9 C 9.23 g/m*3 13.9 C 0 km/h
305 26-06-2014 09:40:00 14.1 C 9.34 g/m*3 14.1 C 1.6 km/h
306 26-06-2014 09:45:00 14.3 C 9.46 g/m*3 14.3 C 3.2 km/h
307 26-06-2014 09:50:00 14.5 C 9.58 g/m*3 14.5 C 4.8 km/h
308 26-06-2014 09:55:00 14.8 C 9.63 g/m*3 14.8 C 1.6 km/h
309 26-06-2014 10:00:00 15.1 C 9.68 g/m*3 15.1 C 0 km/h
310 26-06-2014 10:05:00 15.6 C 9.97 g/m*3 15.6 C 3.2 km/h
311 26-06-2014 10:10:00 16.1 C 9.87 g/m*3 16.1 C 3.2 km/h
312 26-06-2014 10:15:00 16.4 C 9.77 g/m*3 16.4 C 3.2 km/h
313 26-06-2014 10:20:00 16.7 C 9.95 g/m*3 16.7 C 3.2 km/h
314 26-06-2014 10:25:00 16.9 C 9.64 g/m*3 16.9 C 4.8 km/h
315 26-06-2014 10:30:00 17.1 C 9.32 g/m*3 17.1 C 4.8 km/h
316 26-06-2014 10:35:00 17.3 C 9.58 g/m*3 17.3 C 3.2 km/h
317 26-06-2014 10:40:00 17.6 C 9.45 g/m*3 17.6 C 4.8 km/h
318 26-06-2014 10:45:00 17.7 C 9.35 g/m*3 17.7 C 1.6 km/h
319 26-06-2014 10:50:00 17.9 C 9.01 g/m*3 17.9 C 6.4 km/h
320 26-06-2014 10:55:00 18.2 C 9.48 g/m*3 18.2 C 8.1 km/h
321 26-06-2014 11:00:00 18.4 C 9.12 g/m*3 18.4 C 8.1 km/h
322 26-06-2014 11:05:00 18.6 C 8.91 g/m*3 18.6 C 6.4 km/h
323 26-06-2014 11:10:00 18.5 C 9.18 g/m*3 18.5 C 6.4 km/h
324 26-06-2014 11:15:00 18.7 C 9.13 g/m*3 18.7 C 9.7 km/h
325 26-06-2014 11:20:00 18.8 C 8.7 g/m*3 18.8 C 6.4 km/h
Sensor: Nr:Datum:Temp:Abs-Feuchte:Windchill:Wind:
Aussen-T/F 326 26-06-2014 11:25:00 18.9 C 8.91 g/m*3 18.9 C 6.4 km/h
327 26-06-2014 11:30:00 19 C 8.96 g/m*3 19 C 8.1 km/h
328 26-06-2014 11:35:00 19.2 C 9.07 g/m*3 19.2 C 8.1 km/h
329 26-06-2014 11:40:00 19.3 C 8.29 g/m*3 19.3 C 4.8 km/h
330 26-06-2014 11:45:00 19.3 C 8.79 g/m*3 19.3 C 6.4 km/h
331 26-06-2014 11:50:00 19.4 C 9.01 g/m*3 19.4 C 8.1 km/h
332 26-06-2014 11:55:00 19.5 C 8.89 g/m*3 19.5 C 8.1 km/h
333 26-06-2014 12:00:00 19.7 C 8.83 g/m*3 19.7 C 8.1 km/h
334 26-06-2014 12:05:00 19.6 C 8.61 g/m*3 19.6 C 6.4 km/h
335 26-06-2014 12:10:00 19.6 C 9.12 g/m*3 19.6 C 6.4 km/h
336 26-06-2014 12:15:00 19.7 C 9.34 g/m*3 19.7 C 3.2 km/h
337 26-06-2014 12:20:00 20.2 C 9.09 g/m*3 20.2 C 8.1 km/h
338 26-06-2014 12:25:00 20.5 C 8.54 g/m*3 20.5 C 9.7 km/h
339 26-06-2014 12:30:00 20.4 C 8.85 g/m*3 20.4 C 6.4 km/h
340 26-06-2014 12:35:00 20.6 C 8.77 g/m*3 20.6 C 8.1 km/h
341 26-06-2014 12:40:00 20.7 C 8.46 g/m*3 20.7 C 6.4 km/h
342 26-06-2014 12:45:00 20.4 C 8.49 g/m*3 20.4 C 11.3 km/h
343 26-06-2014 12:50:00 20.3 C 8.62 g/m*3 20.3 C 9.7 km/h
344 26-06-2014 12:55:00 20.8 C 9.05 g/m*3 20.8 C 12.9 km/h
345 26-06-2014 13:00:00 21.2 C 8.9 g/m*3 21.2 C 4.8 km/h
346 26-06-2014 13:05:00 21.5 C 9.43 g/m*3 21.5 C 3.2 km/h
347 26-06-2014 13:10:00 21.6 C 8.91 g/m*3 21.6 C 11.3 km/h
348 26-06-2014 13:15:00 21.6 C 8.72 g/m*3 21.6 C 9.7 km/h
349 26-06-2014 13:20:00 21.7 C 8.39 g/m*3 21.7 C 6.4 km/h
350 26-06-2014 13:25:00 21.4 C 8.62 g/m*3 21.4 C 6.4 km/h
Sensor: Nr:Datum:Temp:Abs-Feuchte:Windchill:Wind:
Aussen-T/F 351 26-06-2014 13:30:00 21.6 C 8.72 g/m*3 21.6 C 11.3 km/h
352 26-06-2014 13:35:00 21.6 C 8.91 g/m*3 21.6 C 11.3 km/h
353 26-06-2014 13:40:00 21.7 C 9.16 g/m*3 21.7 C 9.7 km/h
354 26-06-2014 13:45:00 21.9 C 8.88 g/m*3 21.9 C 8.1 km/h
355 26-06-2014 13:50:00 22.2 C 8.25 g/m*3 22.2 C 8.1 km/h
356 26-06-2014 13:55:00 22.2 C 8.83 g/m*3 22.2 C 11.3 km/h
357 26-06-2014 14:00:00 21.9 C 8.1 g/m*3 21.9 C 4.8 km/h
358 26-06-2014 14:05:00 21.9 C 7.53 g/m*3 21.9 C 4.8 km/h
359 26-06-2014 14:10:00 21.7 C 8.01 g/m*3 21.7 C 6.4 km/h
360 26-06-2014 14:15:00 21.7 C 8.39 g/m*3 21.7 C 4.8 km/h
361 26-06-2014 14:20:00 22 C 9.32 g/m*3 22 C 11.3 km/h
362 26-06-2014 14:25:00 22.3 C 8.69 g/m*3 22.3 C 8.1 km/h
363 26-06-2014 14:30:00 22.5 C 8.79 g/m*3 22.5 C 11.3 km/h
364 26-06-2014 14:35:00 22.6 C 8.64 g/m*3 22.6 C 8.1 km/h
365 26-06-2014 14:40:00 22.8 C 8.94 g/m*3 22.8 C 11.3 km/h
366 26-06-2014 14:45:00 22.8 C 8.33 g/m*3 22.8 C 6.4 km/h
367 26-06-2014 14:50:00 22.8 C 7.92 g/m*3 22.8 C 6.4 km/h
368 26-06-2014 14:55:00 22.7 C 8.08 g/m*3 22.7 C 6.4 km/h
369 26-06-2014 15:00:00 22.6 C 8.04 g/m*3 22.6 C 6.4 km/h
370 26-06-2014 15:05:00 22.7 C 8.49 g/m*3 22.7 C 11.3 km/h
371 26-06-2014 15:10:00 23.2 C 7.9 g/m*3 23.2 C 14.5 km/h
372 26-06-2014 15:15:00 23.3 C 8.15 g/m*3 23.3 C 6.4 km/h
373 26-06-2014 15:20:00 23.2 C 7.69 g/m*3 23.2 C 6.4 km/h
374 26-06-2014 15:25:00 23.1 C 7.65 g/m*3 23.1 C 4.8 km/h
375 26-06-2014 15:30:00 23.1 C 8.27 g/m*3 23.1 C 11.3 km/h
Sensor: Nr:Datum:Temp:Abs-Feuchte:Windchill:Wind:
Aussen-T/F 376 26-06-2014 15:35:00 23.2 C 8.11 g/m*3 23.2 C 6.4 km/h
377 26-06-2014 15:40:00 23.1 C 8.27 g/m*3 23.1 C 9.7 km/h
378 26-06-2014 15:45:00 23.2 C 8.32 g/m*3 23.2 C 12.9 km/h
379 26-06-2014 15:50:00 23.1 C 8.27 g/m*3 23.1 C 9.7 km/h
380 26-06-2014 15:55:00 22.9 C 8.17 g/m*3 22.9 C 4.8 km/h
381 26-06-2014 16:00:00 22.7 C 8.08 g/m*3 22.7 C 6.4 km/h
382 26-06-2014 16:05:00 22.8 C 7.72 g/m*3 22.8 C 4.8 km/h
383 26-06-2014 16:10:00 23.1 C 7.65 g/m*3 23.1 C 8.1 km/h
384 26-06-2014 16:15:00 23.3 C 7.74 g/m*3 23.3 C 6.4 km/h
385 26-06-2014 16:20:00 23.7 C 7.49 g/m*3 23.7 C 11.3 km/h
386 26-06-2014 16:25:00 23.8 C 7.74 g/m*3 23.8 C 4.8 km/h
387 26-06-2014 16:30:00 24.2 C 7.7 g/m*3 24.2 C 9.7 km/h
388 26-06-2014 16:35:00 24.3 C 7.52 g/m*3 24.3 C 8.1 km/h
389 26-06-2014 16:40:00 24.2 C 7.26 g/m*3 24.2 C 6.4 km/h
390 26-06-2014 16:45:00 24.3 C 7.75 g/m*3 24.3 C 9.7 km/h
391 26-06-2014 16:50:00 24.4 C 7.57 g/m*3 24.4 C 9.7 km/h
392 26-06-2014 16:55:00 24.1 C 7.44 g/m*3 24.1 C 6.4 km/h
393 26-06-2014 17:00:00 23.7 C 7.06 g/m*3 23.7 C 6.4 km/h
394 26-06-2014 17:05:00 23.2 C 7.28 g/m*3 23.2 C 6.4 km/h
395 26-06-2014 17:10:00 23.1 C 7.65 g/m*3 23.1 C 4.8 km/h
396 26-06-2014 17:15:00 23.5 C 7.82 g/m*3 23.5 C 8.1 km/h
397 26-06-2014 17:20:00 24.2 C 7.92 g/m*3 24.2 C 6.4 km/h
398 26-06-2014 17:25:00 24.2 C 7.48 g/m*3 24.2 C 11.3 km/h
399 26-06-2014 17:30:00 23.8 C 7.53 g/m*3 23.8 C 8.1 km/h
400 26-06-2014 17:35:00 23.4 C 7.36 g/m*3 23.4 C 4.8 km/h
Sensor: Nr:Datum:Temp:Abs-Feuchte:Windchill:Wind:
Aussen-T/F 401 26-06-2014 17:40:00 23.4 C 7.99 g/m*3 23.4 C 8.1 km/h
402 26-06-2014 17:45:00 23.7 C 7.49 g/m*3 23.7 C 6.4 km/h
403 26-06-2014 17:50:00 23.9 C 7.79 g/m*3 23.9 C 9.7 km/h
404 26-06-2014 17:55:00 24.2 C 7.7 g/m*3 24.2 C 8.1 km/h
405 26-06-2014 18:00:00 24.2 C 7.7 g/m*3 24.2 C 8.1 km/h
406 26-06-2014 18:05:00 24.1 C 7.44 g/m*3 24.1 C 6.4 km/h
407 26-06-2014 18:10:00 24.1 C 7 g/m*3 24.1 C 6.4 km/h
408 26-06-2014 18:15:00 24.1 C 7.66 g/m*3 24.1 C 3.2 km/h
409 26-06-2014 18:20:00 24.3 C 7.75 g/m*3 24.3 C 9.7 km/h
410 26-06-2014 18:25:00 24.6 C 7.43 g/m*3 24.6 C 9.7 km/h
411 26-06-2014 18:30:00 24.6 C 7.65 g/m*3 24.6 C 8.1 km/h
412 26-06-2014 18:35:00 24.5 C 7.39 g/m*3 24.5 C 4.8 km/h
413 26-06-2014 18:40:00 24.6 C 7.65 g/m*3 24.6 C 6.4 km/h
414 26-06-2014 18:45:00 24.7 C 7.7 g/m*3 24.7 C 8.1 km/h
415 26-06-2014 18:50:00 24.7 C 7.47 g/m*3 24.7 C 8.1 km/h
416 26-06-2014 18:55:00 24.4 C 7.34 g/m*3 24.4 C 6.4 km/h
417 26-06-2014 19:00:00 24.4 C 7.34 g/m*3 24.4 C 6.4 km/h
418 26-06-2014 19:05:00 24.4 C 7.57 g/m*3 24.4 C 8.1 km/h
419 26-06-2014 19:10:00 24.3 C 6.86 g/m*3 24.3 C 4.8 km/h
420 26-06-2014 19:15:00 24.2 C 7.26 g/m*3 24.2 C 4.8 km/h
421 26-06-2014 19:20:00 24.1 C 7 g/m*3 24.1 C 3.2 km/h
422 26-06-2014 19:25:00 23.7 C 7.06 g/m*3 23.7 C 4.8 km/h
423 26-06-2014 19:30:00 23.3 C 7.32 g/m*3 23.3 C 3.2 km/h
424 26-06-2014 19:35:00 23.1 C 6.82 g/m*3 23.1 C 3.2 km/h
425 26-06-2014 19:40:00 22.9 C 6.95 g/m*3 22.9 C 3.2 km/h
Sensor: Nr:Datum:Temp:Abs-Feuchte:Windchill:Wind:
Aussen-T/F 426 26-06-2014 19:45:00 22.8 C 6.71 g/m*3 22.8 C 3.2 km/h
427 26-06-2014 19:50:00 22.7 C 6.87 g/m*3 22.7 C 1.6 km/h
428 26-06-2014 19:55:00 22.6 C 7.23 g/m*3 22.6 C 4.8 km/h
429 26-06-2014 20:00:00 22.7 C 7.07 g/m*3 22.7 C 4.8 km/h
430 26-06-2014 20:05:00 22.7 C 7.07 g/m*3 22.7 C 3.2 km/h
431 26-06-2014 20:10:00 22.6 C 7.03 g/m*3 22.6 C 3.2 km/h
432 26-06-2014 20:15:00 22.4 C 7.15 g/m*3 22.4 C 4.8 km/h
433 26-06-2014 20:20:00 22.3 C 7.11 g/m*3 22.3 C 4.8 km/h
434 26-06-2014 20:25:00 22.2 C 8.83 g/m*3 22.2 C 1.6 km/h
435 26-06-2014 20:30:00 22 C 8.93 g/m*3 22 C 1.6 km/h
436 26-06-2014 20:35:00 21.6 C 8.91 g/m*3 21.6 C 1.6 km/h
437 26-06-2014 20:40:00 20.9 C 8.92 g/m*3 20.9 C 0 km/h
438 26-06-2014 20:45:00 20.3 C 8.97 g/m*3 20.3 C 0 km/h
439 26-06-2014 20:50:00 19.7 C 9 g/m*3 19.7 C 0 km/h
440 26-06-2014 20:55:00 19.2 C 8.9 g/m*3 19.2 C 0 km/h
441 26-06-2014 21:00:00 19 C 9.13 g/m*3 19 C 0 km/h
442 26-06-2014 21:05:00 18.8 C 9.18 g/m*3 18.8 C 1.6 km/h
443 26-06-2014 21:10:00 18.7 C 9.13 g/m*3 18.7 C 0 km/h
444 26-06-2014 21:15:00 18.4 C 9.12 g/m*3 18.4 C 0 km/h
445 26-06-2014 21:20:00 18.1 C 8.96 g/m*3 18.1 C 0 km/h
446 26-06-2014 21:25:00 17.8 C 8.8 g/m*3 17.8 C 0 km/h
447 26-06-2014 21:30:00 17.6 C 8.7 g/m*3 17.6 C 1.6 km/h
448 26-06-2014 21:35:00 17.5 C 8.65 g/m*3 17.5 C 0 km/h
449 26-06-2014 21:40:00 17.3 C 8.54 g/m*3 17.3 C 0 km/h
450 26-06-2014 21:45:00 17.1 C 8.44 g/m*3 17.1 C 0 km/h
Sensor: Nr:Datum:Temp:Abs-Feuchte:Windchill:Wind:
Aussen-T/F 451 26-06-2014 21:50:00 16.9 C 8.34 g/m*3 16.9 C 0 km/h
452 26-06-2014 21:55:00 16.9 C 8.49 g/m*3 16.9 C 0 km/h
453 26-06-2014 22:00:00 16.7 C 8.53 g/m*3 16.7 C 0 km/h
454 26-06-2014 22:05:00 16.5 C 8.43 g/m*3 16.5 C 0 km/h
455 26-06-2014 22:10:00 16.4 C 8.37 g/m*3 16.4 C 0 km/h
456 26-06-2014 22:15:00 16.3 C 8.46 g/m*3 16.3 C 1.6 km/h
457 26-06-2014 22:20:00 16.2 C 8.41 g/m*3 16.2 C 0 km/h
458 26-06-2014 22:25:00 16 C 8.45 g/m*3 16 C 0 km/h
459 26-06-2014 22:30:00 15.9 C 8.4 g/m*3 15.9 C 0 km/h
460 26-06-2014 22:35:00 15.8 C 8.35 g/m*3 15.8 C 1.6 km/h
461 26-06-2014 22:40:00 15.8 C 8.35 g/m*3 15.8 C 0 km/h
462 26-06-2014 22:45:00 15.7 C 8.56 g/m*3 15.7 C 0 km/h
463 26-06-2014 22:50:00 15.5 C 8.59 g/m*3 15.5 C 0 km/h
464 26-06-2014 22:55:00 15.4 C 8.67 g/m*3 15.4 C 0 km/h
465 26-06-2014 23:00:00 15.3 C 8.62 g/m*3 15.3 C 1.6 km/h
466 26-06-2014 23:05:00 15.3 C 8.49 g/m*3 15.3 C 0 km/h
467 26-06-2014 23:10:00 15.2 C 8.44 g/m*3 15.2 C 0 km/h
468 26-06-2014 23:15:00 15.1 C 8.51 g/m*3 15.1 C 1.6 km/h
469 26-06-2014 23:20:00 15.1 C 8.51 g/m*3 15.1 C 0 km/h
470 26-06-2014 23:25:00 14.9 C 8.41 g/m*3 14.9 C 0 km/h
471 26-06-2014 23:30:00 14.9 C 8.41 g/m*3 14.9 C 0 km/h
472 26-06-2014 23:35:00 14.8 C 8.36 g/m*3 14.8 C 0 km/h
473 26-06-2014 23:40:00 14.7 C 8.44 g/m*3 14.7 C 0 km/h
474 26-06-2014 23:45:00 14.6 C 8.38 g/m*3 14.6 C 0 km/h
475 26-06-2014 23:50:00 14.5 C 8.46 g/m*3 14.5 C 0 km/h
Sensor: Nr:Datum:Temp:Abs-Feuchte:Windchill:Wind:
Aussen-T/F 476 26-06-2014 23:55:00 14.4 C 8.41 g/m*3 14.4 C 0 km/h
477 27-06-2014 00:00:00 14.3 C 8.48 g/m*3 14.3 C 0 km/h
478 27-06-2014 00:05:00 14.2 C 8.43 g/m*3 14.2 C 0 km/h
479 27-06-2014 00:10:00 14.1 C 8.5 g/m*3 14.1 C 0 km/h
480 27-06-2014 00:15:00 13.9 C 8.39 g/m*3 13.9 C 0 km/h
481 27-06-2014 00:20:00 13.8 C 8.46 g/m*3 13.8 C 0 km/h
482 27-06-2014 00:25:00 13.7 C 8.53 g/m*3 13.7 C 0 km/h
483 27-06-2014 00:30:00 13.6 C 8.59 g/m*3 13.6 C 0 km/h
484 27-06-2014 00:35:00 13.5 C 8.54 g/m*3 13.5 C 0 km/h
485 27-06-2014 00:40:00 13.4 C 8.49 g/m*3 13.4 C 0 km/h
486 27-06-2014 00:45:00 13.3 C 8.55 g/m*3 13.3 C 0 km/h
487 27-06-2014 00:50:00 13.2 C 8.61 g/m*3 13.2 C 0 km/h
488 27-06-2014 00:55:00 13.2 C 8.61 g/m*3 13.2 C 0 km/h
489 27-06-2014 01:00:00 13.2 C 8.61 g/m*3 13.2 C 0 km/h
490 27-06-2014 01:05:00 13.1 C 8.67 g/m*3 13.1 C 0 km/h
491 27-06-2014 01:10:00 13 C 8.62 g/m*3 13 C 0 km/h
492 27-06-2014 01:15:00 12.9 C 8.57 g/m*3 12.9 C 0 km/h
493 27-06-2014 01:20:00 12.8 C 8.51 g/m*3 12.8 C 0 km/h
494 27-06-2014 01:25:00 12.7 C 8.57 g/m*3 12.7 C 0 km/h
495 27-06-2014 01:30:00 12.6 C 8.52 g/m*3 12.6 C 0 km/h
496 27-06-2014 01:35:00 12.5 C 8.47 g/m*3 12.5 C 0 km/h
497 27-06-2014 01:40:00 12.4 C 8.52 g/m*3 12.4 C 0 km/h
498 27-06-2014 01:45:00 12.4 C 8.63 g/m*3 12.4 C 0 km/h
499 27-06-2014 01:50:00 12.3 C 8.58 g/m*3 12.3 C 0 km/h
500 27-06-2014 01:55:00 12.3 C 8.58 g/m*3 12.3 C 0 km/h
Sensor: Nr:Datum:Temp:Abs-Feuchte:Windchill:Wind:
Aussen-T/F 501 27-06-2014 02:00:00 12.2 C 8.52 g/m*3 12.2 C 0 km/h
502 27-06-2014 02:05:00 12.1 C 8.47 g/m*3 12.1 C 0 km/h
503 27-06-2014 02:10:00 11.9 C 8.37 g/m*3 11.9 C 0 km/h
504 27-06-2014 02:15:00 11.8 C 8.42 g/m*3 11.8 C 0 km/h
505 27-06-2014 02:20:00 11.8 C 8.42 g/m*3 11.8 C 0 km/h
506 27-06-2014 02:25:00 11.7 C 8.47 g/m*3 11.7 C 0 km/h
507 27-06-2014 02:30:00 11.6 C 8.42 g/m*3 11.6 C 0 km/h
508 27-06-2014 02:35:00 11.6 C 8.42 g/m*3 11.6 C 0 km/h
509 27-06-2014 02:40:00 11.6 C 8.42 g/m*3 11.6 C 0 km/h
510 27-06-2014 02:45:00 11.6 C 8.42 g/m*3 11.6 C 0 km/h
511 27-06-2014 02:50:00 11.6 C 8.42 g/m*3 11.6 C 0 km/h
512 27-06-2014 02:55:00 11.5 C 8.37 g/m*3 11.5 C 0 km/h
513 27-06-2014 03:00:00 11.4 C 8.31 g/m*3 11.4 C 0 km/h
514 27-06-2014 03:05:00 11.4 C 8.42 g/m*3 11.4 C 0 km/h
515 27-06-2014 03:10:00 11.4 C 8.42 g/m*3 11.4 C 0 km/h
516 27-06-2014 03:15:00 11.3 C 8.36 g/m*3 11.3 C 0 km/h
517 27-06-2014 03:20:00 11.2 C 8.31 g/m*3 11.2 C 0 km/h
518 27-06-2014 03:25:00 11.2 C 8.41 g/m*3 11.2 C 0 km/h
519 27-06-2014 03:30:00 11.1 C 8.36 g/m*3 11.1 C 0 km/h
520 27-06-2014 03:35:00 11.1 C 8.36 g/m*3 11.1 C 0 km/h
521 27-06-2014 03:40:00 11.1 C 8.36 g/m*3 11.1 C 0 km/h
522 27-06-2014 03:45:00 11 C 8.31 g/m*3 11 C 0 km/h
523 27-06-2014 03:50:00 10.9 C 8.36 g/m*3 10.9 C 0 km/h
524 27-06-2014 03:55:00 10.8 C 8.3 g/m*3 10.8 C 0 km/h
525 27-06-2014 04:00:00 10.8 C 8.3 g/m*3 10.8 C 0 km/h
Sensor: Nr:Datum:Temp:Abs-Feuchte:Windchill:Wind:
Aussen-T/F 526 27-06-2014 04:05:00 10.7 C 8.25 g/m*3 10.7 C 0 km/h
527 27-06-2014 04:10:00 10.6 C 8.3 g/m*3 10.6 C 0 km/h
528 27-06-2014 04:15:00 10.6 C 8.3 g/m*3 10.6 C 0 km/h
529 27-06-2014 04:20:00 10.5 C 8.24 g/m*3 10.5 C 0 km/h
530 27-06-2014 04:25:00 10.4 C 8.19 g/m*3 10.4 C 0 km/h
531 27-06-2014 04:30:00 10.4 C 8.29 g/m*3 10.4 C 0 km/h
532 27-06-2014 04:35:00 10.3 C 8.14 g/m*3 10.3 C 0 km/h
533 27-06-2014 04:40:00 10.3 C 8.24 g/m*3 10.3 C 0 km/h
534 27-06-2014 04:45:00 10.2 C 8.18 g/m*3 10.2 C 0 km/h
535 27-06-2014 04:50:00 10.2 C 8.18 g/m*3 10.2 C 0 km/h
536 27-06-2014 04:55:00 10.2 C 8.28 g/m*3 10.2 C 0 km/h
537 27-06-2014 05:00:00 10.2 C 8.28 g/m*3 10.2 C 0 km/h
538 27-06-2014 05:05:00 10.1 C 8.13 g/m*3 10.1 C 0 km/h
539 27-06-2014 05:10:00 10.1 C 8.23 g/m*3 10.1 C 0 km/h
540 27-06-2014 05:15:00 10.1 C 8.23 g/m*3 10.1 C 0 km/h
541 27-06-2014 05:20:00 10 C 8.17 g/m*3 10 C 0 km/h
542 27-06-2014 05:25:00 9.9 C 8.12 g/m*3 9.9 C 0 km/h
543 27-06-2014 05:30:00 9.9 C 8.22 g/m*3 9.9 C 0 km/h
544 27-06-2014 05:35:00 10 C 8.27 g/m*3 10 C 0 km/h
545 27-06-2014 05:40:00 10.1 C 8.32 g/m*3 10.1 C 0 km/h
546 27-06-2014 05:45:00 10.2 C 8.37 g/m*3 10.2 C 0 km/h
547 27-06-2014 05:50:00 10.3 C 8.43 g/m*3 10.3 C 0 km/h
548 27-06-2014 05:55:00 10.3 C 8.33 g/m*3 10.3 C 0 km/h
549 27-06-2014 06:00:00 10.3 C 8.33 g/m*3 10.3 C 0 km/h
550 27-06-2014 06:05:00 10.2 C 8.28 g/m*3 10.2 C 0 km/h
Sensor: Nr:Datum:Temp:Abs-Feuchte:Windchill:Wind:
Aussen-T/F 551 27-06-2014 06:10:00 10.2 C 8.28 g/m*3 10.2 C 0 km/h
552 27-06-2014 06:15:00 10.2 C 8.37 g/m*3 10.2 C 0 km/h
553 27-06-2014 06:20:00 10.1 C 8.32 g/m*3 10.1 C 0 km/h
554 27-06-2014 06:25:00 10.1 C 8.32 g/m*3 10.1 C 0 km/h
555 27-06-2014 06:30:00 10.2 C 8.37 g/m*3 10.2 C 0 km/h
556 27-06-2014 06:35:00 10.2 C 8.37 g/m*3 10.2 C 0 km/h
557 27-06-2014 06:40:00 10.3 C 8.43 g/m*3 10.3 C 0 km/h
558 27-06-2014 06:45:00 10.4 C 8.48 g/m*3 10.4 C 0 km/h
559 27-06-2014 06:50:00 10.4 C 8.48 g/m*3 10.4 C 0 km/h
560 27-06-2014 06:55:00 10.6 C 8.59 g/m*3 10.6 C 0 km/h
561 27-06-2014 07:00:00 10.7 C 8.64 g/m*3 10.7 C 0 km/h
562 27-06-2014 07:05:00 10.8 C 8.7 g/m*3 10.8 C 3.2 km/h
563 27-06-2014 07:10:00 11 C 8.61 g/m*3 11 C 1.6 km/h
564 27-06-2014 07:15:00 11.2 C 8.82 g/m*3 11.2 C 0 km/h
565 27-06-2014 07:20:00 11.3 C 8.77 g/m*3 11.3 C 0 km/h
566 27-06-2014 07:25:00 11.4 C 8.83 g/m*3 11.4 C 0 km/h
567 27-06-2014 07:30:00 11.5 C 8.78 g/m*3 11.5 C 1.6 km/h
568 27-06-2014 07:35:00 11.6 C 8.83 g/m*3 11.6 C 0 km/h
569 27-06-2014 07:40:00 11.7 C 8.79 g/m*3 11.7 C 0 km/h
570 27-06-2014 07:45:00 11.7 C 8.89 g/m*3 11.7 C 0 km/h
571 27-06-2014 07:50:00 11.7 C 8.89 g/m*3 11.7 C 1.6 km/h
572 27-06-2014 07:55:00 12.2 C 8.96 g/m*3 12.2 C 1.6 km/h
573 27-06-2014 08:00:00 12.3 C 8.9 g/m*3 12.3 C 3.2 km/h
574 27-06-2014 08:05:00 12.4 C 8.85 g/m*3 12.4 C 1.6 km/h
575 27-06-2014 08:10:00 12.7 C 9.13 g/m*3 12.7 C 0 km/h
Sensor: Nr:Datum:Temp:Abs-Feuchte:Windchill:Wind:
Aussen-T/F 576 27-06-2014 08:15:00 13.1 C 9.13 g/m*3 13.1 C 1.6 km/h
577 27-06-2014 08:20:00 13.5 C 9.24 g/m*3 13.5 C 1.6 km/h
578 27-06-2014 08:25:00 13.8 C 9.06 g/m*3 13.8 C 0 km/h
579 27-06-2014 08:30:00 14.3 C 8.97 g/m*3 14.3 C 0 km/h
580 27-06-2014 08:35:00 14.7 C 9.19 g/m*3 14.7 C 1.6 km/h
581 27-06-2014 08:40:00 15.2 C 9.35 g/m*3 15.2 C 0 km/h
582 27-06-2014 08:45:00 15.7 C 9.5 g/m*3 15.7 C 1.6 km/h
583 27-06-2014 08:50:00 15.9 C 9.34 g/m*3 15.9 C 0 km/h
584 27-06-2014 08:55:00 16.1 C 9.87 g/m*3 16.1 C 0 km/h
585 27-06-2014 09:00:00 15.9 C 9.75 g/m*3 15.9 C 0 km/h
586 27-06-2014 09:05:00 15.8 C 9.96 g/m*3 15.8 C 0 km/h
587 27-06-2014 09:10:00 15.7 C 10.03 g/m*3 15.7 C 0 km/h
588 27-06-2014 09:15:00 15.7 C 9.77 g/m*3 15.7 C 1.6 km/h
589 27-06-2014 09:20:00 15.8 C 9.56 g/m*3 15.8 C 3.2 km/h
590 27-06-2014 09:25:00 15.9 C 9.75 g/m*3 15.9 C 3.2 km/h
591 27-06-2014 09:30:00 16.1 C 9.73 g/m*3 16.1 C 1.6 km/h
592 27-06-2014 09:35:00 16.2 C 9.65 g/m*3 16.2 C 1.6 km/h
593 27-06-2014 09:40:00 16.4 C 9.77 g/m*3 16.4 C 0 km/h
594 27-06-2014 09:45:00 16.6 C 9.89 g/m*3 16.6 C 0 km/h
595 27-06-2014 09:50:00 16.8 C 9.87 g/m*3 16.8 C 1.6 km/h
596 27-06-2014 09:55:00 16.9 C 10.07 g/m*3 16.9 C 0 km/h
597 27-06-2014 10:00:00 17.1 C 10.34 g/m*3 17.1 C 0 km/h
598 27-06-2014 10:05:00 17.2 C 9.23 g/m*3 17.2 C 1.6 km/h
599 27-06-2014 10:10:00 17.3 C 9.43 g/m*3 17.3 C 3.2 km/h
600 27-06-2014 10:15:00 17.4 C 9.48 g/m*3 17.4 C 0 km/h
Sensor: Nr:Datum:Temp:Abs-Feuchte:Windchill:Wind:
Aussen-T/F 601 27-06-2014 10:20:00 17.7 C 9.81 g/m*3 17.7 C 1.6 km/h
602 27-06-2014 10:25:00 17.9 C 9.92 g/m*3 17.9 C 3.2 km/h
603 27-06-2014 10:30:00 18.1 C 10.04 g/m*3 18.1 C 1.6 km/h
604 27-06-2014 10:35:00 18.2 C 9.48 g/m*3 18.2 C 1.6 km/h
605 27-06-2014 10:40:00 18.3 C 10.01 g/m*3 18.3 C 0 km/h
606 27-06-2014 10:45:00 18.8 C 10.31 g/m*3 18.8 C 3.2 km/h
607 27-06-2014 10:50:00 19.1 C 10 g/m*3 19.1 C 3.2 km/h
608 27-06-2014 10:55:00 19.3 C 10.28 g/m*3 19.3 C 1.6 km/h
609 27-06-2014 11:00:00 19.5 C 9.9 g/m*3 19.5 C 3.2 km/h
610 27-06-2014 11:05:00 19.7 C 9.68 g/m*3 19.7 C 3.2 km/h
611 27-06-2014 11:10:00 19.8 C 9.91 g/m*3 19.8 C 4.8 km/h
612 27-06-2014 11:15:00 19.9 C 9.62 g/m*3 19.9 C 4.8 km/h
613 27-06-2014 11:20:00 20.1 C 9.91 g/m*3 20.1 C 4.8 km/h
614 27-06-2014 11:25:00 20.2 C 9.62 g/m*3 20.2 C 6.4 km/h
615 27-06-2014 11:30:00 20.3 C 9.5 g/m*3 20.3 C 6.4 km/h
616 27-06-2014 11:35:00 20.3 C 9.5 g/m*3 20.3 C 4.8 km/h
617 27-06-2014 11:40:00 20.4 C 9.73 g/m*3 20.4 C 9.7 km/h
618 27-06-2014 11:45:00 20.6 C 9.31 g/m*3 20.6 C 4.8 km/h
619 27-06-2014 11:50:00 20.7 C 9.36 g/m*3 20.7 C 8.1 km/h
620 27-06-2014 11:55:00 21 C 9.16 g/m*3 21 C 8.1 km/h
621 27-06-2014 12:00:00 21.2 C 9.08 g/m*3 21.2 C 9.7 km/h
622 27-06-2014 12:05:00 21.5 C 9.05 g/m*3 21.5 C 9.7 km/h
623 27-06-2014 12:10:00 21.7 C 9.54 g/m*3 21.7 C 8.1 km/h
624 27-06-2014 12:15:00 21.8 C 9.02 g/m*3 21.8 C 12.9 km/h
625 27-06-2014 12:20:00 21.8 C 8.83 g/m*3 21.8 C 6.4 km/h
Sensor: Nr:Datum:Temp:Abs-Feuchte:Windchill:Wind:
Aussen-T/F 626 27-06-2014 12:25:00 21.8 C 8.83 g/m*3 21.8 C 11.3 km/h
627 27-06-2014 12:30:00 21.7 C 8.77 g/m*3 21.7 C 8.1 km/h
628 27-06-2014 12:35:00 21.6 C 8.72 g/m*3 21.6 C 8.1 km/h
629 27-06-2014 12:40:00 21.6 C 8.72 g/m*3 21.6 C 8.1 km/h
630 27-06-2014 12:45:00 21.7 C 8.58 g/m*3 21.7 C 6.4 km/h
631 27-06-2014 12:50:00 22 C 8.73 g/m*3 22 C 6.4 km/h
632 27-06-2014 12:55:00 22.6 C 8.64 g/m*3 22.6 C 11.3 km/h
633 27-06-2014 13:00:00 22.8 C 8.53 g/m*3 22.8 C 8.1 km/h
634 27-06-2014 13:05:00 22.9 C 8.38 g/m*3 22.9 C 8.1 km/h
635 27-06-2014 13:10:00 22.9 C 8.79 g/m*3 22.9 C 6.4 km/h
636 27-06-2014 13:15:00 23.1 C 8.48 g/m*3 23.1 C 8.1 km/h
637 27-06-2014 13:20:00 23.2 C 8.73 g/m*3 23.2 C 8.1 km/h
638 27-06-2014 13:25:00 23.5 C 8.46 g/m*3 23.5 C 9.7 km/h
639 27-06-2014 13:30:00 23.8 C 8.82 g/m*3 23.8 C 8.1 km/h
640 27-06-2014 13:35:00 24.2 C 9.02 g/m*3 24.2 C 9.7 km/h
641 27-06-2014 13:40:00 24.4 C 8.23 g/m*3 24.4 C 9.7 km/h
642 27-06-2014 13:45:00 24.7 C 8.6 g/m*3 24.7 C 17.7 km/h
643 27-06-2014 13:50:00 25 C 8.75 g/m*3 25 C 17.7 km/h
644 27-06-2014 13:55:00 25.4 C 8.48 g/m*3 25.4 C 12.9 km/h
645 27-06-2014 14:00:00 25.8 C 8.67 g/m*3 25.8 C 16.1 km/h
646 27-06-2014 14:05:00 25.8 C 9.15 g/m*3 25.8 C 17.7 km/h
647 27-06-2014 14:10:00 25.7 C 8.86 g/m*3 25.7 C 17.7 km/h
648 27-06-2014 14:15:00 25.1 C 9.03 g/m*3 25.1 C 14.5 km/h
649 27-06-2014 14:20:00 24.9 C 9.16 g/m*3 24.9 C 8.1 km/h
650 27-06-2014 14:25:00 25.3 C 9.36 g/m*3 25.3 C 12.9 km/h
Sensor: Nr:Datum:Temp:Abs-Feuchte:Windchill:Wind:
Aussen-T/F 651 27-06-2014 14:30:00 25.8 C 9.15 g/m*3 25.8 C 16.1 km/h
652 27-06-2014 14:35:00 25.9 C 8.96 g/m*3 25.9 C 14.5 km/h
653 27-06-2014 14:40:00 25.8 C 9.15 g/m*3 25.8 C 14.5 km/h
654 27-06-2014 14:45:00 25.6 C 9.05 g/m*3 25.6 C 19.3 km/h
655 27-06-2014 14:50:00 25.3 C 9.13 g/m*3 25.3 C 11.3 km/h
656 27-06-2014 14:55:00 25.1 C 9.03 g/m*3 25.1 C 4.8 km/h
657 27-06-2014 15:00:00 25.1 C 9.26 g/m*3 25.1 C 11.3 km/h
658 27-06-2014 15:05:00 25.2 C 9.08 g/m*3 25.2 C 9.7 km/h
659 27-06-2014 15:10:00 25.4 C 8.95 g/m*3 25.4 C 8.1 km/h
660 27-06-2014 15:15:00 25.5 C 9 g/m*3 25.5 C 14.5 km/h
661 27-06-2014 15:20:00 25.4 C 8.95 g/m*3 25.4 C 11.3 km/h
662 27-06-2014 15:25:00 25.3 C 9.13 g/m*3 25.3 C 12.9 km/h
663 27-06-2014 15:30:00 25.4 C 9.18 g/m*3 25.4 C 6.4 km/h
664 27-06-2014 15:35:00 25.6 C 9.05 g/m*3 25.6 C 11.3 km/h
665 27-06-2014 15:40:00 25.6 C 8.81 g/m*3 25.6 C 9.7 km/h
666 27-06-2014 15:45:00 25.9 C 9.2 g/m*3 25.9 C 11.3 km/h
667 27-06-2014 15:50:00 26.4 C 8.96 g/m*3 26.4 C 9.7 km/h
668 27-06-2014 15:55:00 26.8 C 9.16 g/m*3 26.8 C 12.9 km/h
669 27-06-2014 16:00:00 27.1 C 9.32 g/m*3 27.1 C 9.7 km/h
670 27-06-2014 16:05:00 27.2 C 9.11 g/m*3 27.2 C 12.9 km/h
671 27-06-2014 16:10:00 27.1 C 9.06 g/m*3 27.1 C 12.9 km/h
672 27-06-2014 16:15:00 27 C 8.75 g/m*3 27 C 12.9 km/h
673 27-06-2014 16:20:00 27.1 C 9.06 g/m*3 27.1 C 12.9 km/h
674 27-06-2014 16:25:00 27.1 C 9.06 g/m*3 27.1 C 4.8 km/h
675 27-06-2014 16:30:00 27 C 9.01 g/m*3 27 C 11.3 km/h
Sensor: Nr:Datum:Temp:Abs-Feuchte:Windchill:Wind:
Aussen-T/F 676 27-06-2014 16:35:00 26.8 C 8.91 g/m*3 26.8 C 11.3 km/h
677 27-06-2014 16:40:00 26.6 C 9.31 g/m*3 26.6 C 11.3 km/h
678 27-06-2014 16:45:00 26.4 C 8.71 g/m*3 26.4 C 12.9 km/h
679 27-06-2014 16:50:00 26.2 C 8.86 g/m*3 26.2 C 14.5 km/h
680 27-06-2014 16:55:00 25.9 C 9.2 g/m*3 25.9 C 6.4 km/h
681 27-06-2014 17:00:00 25.8 C 8.91 g/m*3 25.8 C 8.1 km/h
682 27-06-2014 17:05:00 25.5 C 9.23 g/m*3 25.5 C 3.2 km/h
683 27-06-2014 17:10:00 25.1 C 9.03 g/m*3 25.1 C 11.3 km/h
684 27-06-2014 17:15:00 24.8 C 9.1 g/m*3 24.8 C 4.8 km/h
685 27-06-2014 17:20:00 24.4 C 9.12 g/m*3 24.4 C 16.1 km/h
686 27-06-2014 17:25:00 24.1 C 9.63 g/m*3 24.1 C 17.7 km/h
687 27-06-2014 17:30:00 23.7 C 9.84 g/m*3 23.7 C 16.1 km/h
688 27-06-2014 17:35:00 23.2 C 9.98 g/m*3 23.2 C 12.9 km/h
689 27-06-2014 17:40:00 23 C 10.28 g/m*3 23 C 11.3 km/h
690 27-06-2014 17:45:00 22.7 C 10.51 g/m*3 22.7 C 16.1 km/h
691 27-06-2014 17:50:00 22.4 C 10.53 g/m*3 22.4 C 12.9 km/h
692 27-06-2014 17:55:00 22.3 C 10.47 g/m*3 22.3 C 11.3 km/h
693 27-06-2014 18:00:00 22.2 C 10.41 g/m*3 22.2 C 14.5 km/h
694 27-06-2014 18:05:00 22.2 C 10.41 g/m*3 22.2 C 8.1 km/h
695 27-06-2014 18:10:00 22.2 C 10.41 g/m*3 22.2 C 6.4 km/h
696 27-06-2014 18:15:00 22.2 C 10.41 g/m*3 22.2 C 8.1 km/h
697 27-06-2014 18:20:00 22.2 C 10.41 g/m*3 22.2 C 9.7 km/h
698 27-06-2014 18:25:00 22.2 C 10.6 g/m*3 22.2 C 8.1 km/h
699 27-06-2014 18:30:00 22.2 C 10.41 g/m*3 22.2 C 9.7 km/h
700 27-06-2014 18:35:00 22.2 C 10.6 g/m*3 22.2 C 8.1 km/h
Sensor: Nr:Datum:Temp:Abs-Feuchte:Windchill:Wind:
Aussen-T/F 701 27-06-2014 18:40:00 22.2 C 10.6 g/m*3 22.2 C 6.4 km/h
702 27-06-2014 18:45:00 22.2 C 10.6 g/m*3 22.2 C 3.2 km/h
703 27-06-2014 18:50:00 22.1 C 10.54 g/m*3 22.1 C 3.2 km/h
704 27-06-2014 18:55:00 22 C 11.65 g/m*3 22 C 6.4 km/h
705 27-06-2014 19:00:00 21.6 C 11.76 g/m*3 21.6 C 4.8 km/h
706 27-06-2014 19:05:00 21.2 C 11.86 g/m*3 21.2 C 4.8 km/h
707 27-06-2014 19:10:00 20.9 C 11.84 g/m*3 20.9 C 6.4 km/h
708 27-06-2014 19:15:00 20.7 C 11.88 g/m*3 20.7 C 4.8 km/h
709 27-06-2014 19:20:00 20.6 C 11.99 g/m*3 20.6 C 4.8 km/h
710 27-06-2014 19:25:00 20.6 C 11.99 g/m*3 20.6 C 4.8 km/h
711 27-06-2014 19:30:00 20.5 C 11.92 g/m*3 20.5 C 3.2 km/h
712 27-06-2014 19:35:00 20.4 C 12.03 g/m*3 20.4 C 1.6 km/h
713 27-06-2014 19:40:00 20.4 C 12.21 g/m*3 20.4 C 1.6 km/h
714 27-06-2014 19:45:00 20.3 C 11.96 g/m*3 20.3 C 0 km/h
715 27-06-2014 19:50:00 20.4 C 12.03 g/m*3 20.4 C 4.8 km/h
716 27-06-2014 19:55:00 20.5 C 12.1 g/m*3 20.5 C 3.2 km/h
717 27-06-2014 20:00:00 20.6 C 12.17 g/m*3 20.6 C 0 km/h
718 27-06-2014 20:05:00 20.5 C 12.1 g/m*3 20.5 C 3.2 km/h
719 27-06-2014 20:10:00 20.4 C 12.03 g/m*3 20.4 C 1.6 km/h
720 27-06-2014 20:15:00 20.3 C 12.31 g/m*3 20.3 C 0 km/h
721 27-06-2014 20:20:00 20.2 C 12.41 g/m*3 20.2 C 0 km/h
722 27-06-2014 20:25:00 20 C 12.44 g/m*3 20 C 0 km/h
723 27-06-2014 20:30:00 19.8 C 12.47 g/m*3 19.8 C 0 km/h
724 27-06-2014 20:35:00 19.7 C 12.4 g/m*3 19.7 C 0 km/h
725 27-06-2014 20:40:00 19.6 C 12.49 g/m*3 19.6 C 0 km/h
Sensor: Nr:Datum:Temp:Abs-Feuchte:Windchill:Wind:
Aussen-T/F 726 27-06-2014 20:45:00 19.5 C 12.42 g/m*3 19.5 C 0 km/h
727 27-06-2014 20:50:00 19.4 C 12.51 g/m*3 19.4 C 0 km/h
728 27-06-2014 20:55:00 19.2 C 12.37 g/m*3 19.2 C 0 km/h
729 27-06-2014 21:00:00 19 C 12.39 g/m*3 19 C 0 km/h
730 27-06-2014 21:05:00 18.8 C 12.24 g/m*3 18.8 C 0 km/h
731 27-06-2014 21:10:00 18.8 C 12.24 g/m*3 18.8 C 0 km/h
732 27-06-2014 21:15:00 18.7 C 12.17 g/m*3 18.7 C 0 km/h
733 27-06-2014 21:20:00 18.6 C 12.1 g/m*3 18.6 C 0 km/h
734 27-06-2014 21:25:00 18.5 C 12.02 g/m*3 18.5 C 0 km/h
735 27-06-2014 21:30:00 18.4 C 12.11 g/m*3 18.4 C 0 km/h
736 27-06-2014 21:35:00 18.3 C 12.04 g/m*3 18.3 C 0 km/h
737 27-06-2014 21:40:00 18.3 C 12.2 g/m*3 18.3 C 0 km/h
738 27-06-2014 21:45:00 18.2 C 12.59 g/m*3 18.2 C 0 km/h
739 27-06-2014 21:50:00 17.9 C 12.83 g/m*3 17.9 C 0 km/h
740 27-06-2014 21:55:00 17.7 C 12.82 g/m*3 17.7 C 1.6 km/h
741 27-06-2014 22:00:00 17.4 C 12.89 g/m*3 17.4 C 0 km/h
742 27-06-2014 22:05:00 17.2 C 12.74 g/m*3 17.2 C 0 km/h
743 27-06-2014 22:10:00 16.9 C 12.51 g/m*3 16.9 C 0 km/h
744 27-06-2014 22:15:00 16.8 C 12.44 g/m*3 16.8 C 1.6 km/h
745 27-06-2014 22:20:00 16.6 C 12.29 g/m*3 16.6 C 1.6 km/h
746 27-06-2014 22:25:00 16.5 C 12.22 g/m*3 16.5 C 1.6 km/h
747 27-06-2014 22:30:00 16.5 C 12.22 g/m*3 16.5 C 1.6 km/h
748 27-06-2014 22:35:00 16.2 C 12 g/m*3 16.2 C 0 km/h
749 27-06-2014 22:40:00 16.2 C 12 g/m*3 16.2 C 0 km/h
750 27-06-2014 22:45:00 16.1 C 12.06 g/m*3 16.1 C 0 km/h
Sensor: Nr:Datum:Temp:Abs-Feuchte:Windchill:Wind:
Aussen-T/F 751 27-06-2014 22:50:00 16 C 11.99 g/m*3 16 C 0 km/h
752 27-06-2014 22:55:00 15.9 C 11.92 g/m*3 15.9 C 0 km/h
753 27-06-2014 23:00:00 15.9 C 12.05 g/m*3 15.9 C 1.6 km/h
754 27-06-2014 23:05:00 15.8 C 11.98 g/m*3 15.8 C 0 km/h
755 27-06-2014 23:10:00 15.8 C 11.98 g/m*3 15.8 C 0 km/h
756 27-06-2014 23:15:00 15.7 C 11.91 g/m*3 15.7 C 0 km/h
757 27-06-2014 23:20:00 15.7 C 11.91 g/m*3 15.7 C 0 km/h
758 27-06-2014 23:25:00 15.7 C 11.91 g/m*3 15.7 C 0 km/h
759 27-06-2014 23:30:00 15.7 C 11.91 g/m*3 15.7 C 0 km/h
760 27-06-2014 23:35:00 15.6 C 11.84 g/m*3 15.6 C 0 km/h
761 27-06-2014 23:40:00 15.5 C 11.9 g/m*3 15.5 C 0 km/h
762 27-06-2014 23:45:00 15.7 C 12.04 g/m*3 15.7 C 12.9 km/h
763 27-06-2014 23:50:00 16.2 C 12 g/m*3 16.2 C 9.7 km/h
764 27-06-2014 23:55:00 16.6 C 12.15 g/m*3 16.6 C 8.1 km/h

Legende:
   Min
   Max


Maximal/Minimal-Werte vom 25.06.2014 - 27.06.2014

Sensor Min Max Avg
Temp
(Aussen-T/F)
8.4 °C
26-06-2014  05:05:00
27.2 °C
27-06-2014  16:05:00
16.97 °C
Abs-Feuchte
(Aussen-T/F)
6.71 g/m*3
26-06-2014  19:45:00
12.89 g/m*3
27-06-2014  22:00:00
8.74 g/m*3
Windchill
(Aussen-T/F)
8.4 C
26-06-2014  05:05:00
27.2 C
27-06-2014  16:05:00
16.95 C

Die Daten stammen von einer Davis Vantage Pro 2 Wetter-Station und werden unter Linux mit der Software wview2wettercgi und aufbereitet. Alle Angaben erfolgen ohne Gewähr für ihre Vollständigkeit oder Richtigkeit.
Kontakt: Rainer Krienke krienke@uni-koblenz.de . Meine Webseiten an der Uni Koblenz oder privat.
Version: $Revision: 0.78 $